Terug naar catalogus

SL-8 R/B

ActiefLEO
NORAD 18945·ROCKET BODY·🇷🇺 Russia

Gelanceerd Mar 11, 1988 vanaf Plesetsk Cosmodrome

Loading…

Volgende Passages (komende 24 uur)

TLE

VersSource: Space-Track

Epoch: Sep 14, 2026, 06:56 UTC

1 18945U 88016J   26257.28945045  .00000028  00000-0  38526-3 0  9996
2 18945  74.0125 356.3651 0140650 328.9562  56.7998 12.24056310720825

Volg SL-8 R/B in realtime met AllMySat

Download on the App Store